Simultaneous Nadir Overpasses (SNOs) Predictions

Prediction of SNOs over PacNW region [( 10.00, 139.50) to ( 22.70, 165.60)] between NOAA-19 and NPP Satellites:

Table of predicted SNOs over PacNW region for the next 30.0 days since TLE Epoch: 11/3/2012
Index Date (NOAA-19) Time (NOAA-19) NOAA-19 Lat,Lon Date (NPP) Time (NPP) NPP Lat,Lon Distance(km) Time Diff (sec)
1 11/03/2012 04:01:44 19.47, 139.91 11/03/2012 04:02:12 18.86, 137.21 290.99 28
2 11/03/2012 14:56:26 11.34, 161.17 11/03/2012 14:53:11 11.77, 159.28 211.11 195
3 11/15/2012 03:31:06 10.99, 149.02 11/15/2012 03:34:26 10.22, 145.57 387.56 200
4 11/15/2012 16:08:04 19.27, 144.63 11/15/2012 16:07:05 19.83, 142.14 268.06 59
5 11/16/2012 03:23:35 22.70, 148.91 11/16/2012 03:19:58 26.25, 146.44 467.60 217
6 11/27/2012 15:38:46 22.63, 152.59 11/27/2012 15:40:44 23.35, 149.35 341.44 118
7 11/28/2012<
